Showing default

SKYBEE-A01, 62671

Orbit data source: Space-Track

SKYBEE-A01, 62671 is a payload satellite owned by ConstellR (DE) in SSO that was launched on Tue, 14 Jan 2025 UTC via an FALCON 9 launch vehicle from the Air Force Western Test Range (AFWTR). Payload-class satellites include a variety of spacecraft equipped with specific instruments for various scientific and technological missions. These include communications satellites like Starlink; space stations such as the ISS; scientific satellites like the Hubble; Earth observation satellites from companies like Planet Labs, Umbra, and HawkEye 360; GPS; miniature CubeSats for education and research; and military/defense satellites.

Loading next visibility...
Identifier
62671, 2025-009BQ
Orbit
SSO
Country
Flag of DEDE / GER
Related business
Manufacturer
NanoAvionics
Mission
Operational Commercial Imaging
Bus & Motor
CUBESAT 16U MP42, Unknown motor
Mass
110 kg wet, 110 kg dry
Launch date (UTC)
2025-01-14 (1 year ago)
Launch vehicle
FALCON 9
Launch site
Air Force Western Test Range (AFWTR)
Object type
Payload
Rocket body
Debris
Shape & HBR
Box + 2 Pan, 2.6 m
Radar Cross Section
0.146 m², Medium (>0.1 m² and < 1m²)

Expand to show TLE details & history
Last TLE update: 21 hours ago

TLE from 21 hours ago
0 SKYBEE-A01
1 62671U 25009BQ  26034.50405354  .00003639  00000-0  17092-3 0  9992
2 62671  97.4100 115.4667 0006931  84.4612 275.7413 15.20223327116025
Epoch: 2026-02-03T12:05Z
TLE epoch observation values (Epoch: 2026-02-03T12:05:50.225Z)
Latitude
-0.00011°
Longitude
160.3234°
Altitude
507.783 km
Speed
7.61 km/s
True Right ascension
07h 41m 52s
True Declination
0° 00' 00"
Sunlit
Object was in full shadow at epoch
Visualization orbit readout
Latitude
Unknown
Longitude
Unknown
Altitude
Unknown
Speed
Unknown
Apparent Right ascension
Unknown
Apparent Declination
Unknown
Sunlit
N/A
Visualization observer readout
Local Sidereal Time
11:12:43
Azimuth
Unknown
Elevation
Unknown
Doppler factor
Unknown
Orbital elements
Apogee altitude
506.901 km
Perigee altitude
497.363 km
Semi-major axis
6,880.269 km
Eccentricity
0.00069
Inclination
97.41°
RAAN
115.4667°
Arg. of periapsis
84.4612°
True anomaly
275.66227°
Mean anomaly
275.7413°
Eccentric anomaly
275.70178°
Mean motion
3.80308 °/min
Orbital period
94.66 mins
BSTAR
0.00017092
Loading maneuver chart data...
Computing Atmospheric mass density...
Loading historical data...
Loading historical data...
Loading historical data...
Loading historical data...
Loading historical data...
Loading historical data...
Loading historical data...

Documentation

Showing up to 5 results
|